Wind_Speed
28 28 27 27 27 27 28 28 28 28 29 30 30 30 29 30 30 29 28 28 28 28 27 27 26 26 27 27 27 27 27 27 28 27 27 26 26 26 26 25 25 25 25
27 28 28 27 27 26 28 29 29 30 31 31 31 30 30 29 29 29 28 28 28 29 28 27 26 27 27 27 26 27 27 27 27 27 27 27 27 26 26 26 26 26 26
29 29 29 29 28 28 29 29 30 30 30 31 30 30 30 29 29 29 28 28 28 28 29 28 27 27 28 27 27 27 27 27 27 27 26 26 26 26 26 26 26 26 26
29 30 30 30 29 27 28 29 30 30 30 30 30 30 29 29 29 30 29 29 28 28 28 28 28 27 27 27 28 28 28 28 28 28 27 27 26 26 26 26 25 25 26
29 31 30 29 29 29 28 29 29 30 30 30 30 30 30 30 30 29 29 28 28 27 28 28 28 28 27 27 27 28 28 29 29 28 28 27 26 26 26 26 26 25 25
29 30 30 29 28 28 27 27 28 29 29 30 31 31 31 30 29 29 28 27 27 27 28 28 28 28 28 27 27 28 28 28 28 28 27 27 26 26 27 26 25 25 25
29 29 29 29 28 28 28 27 27 28 28 29 30 31 30 30 28 28 28 27 27 27 27 27 28 28 28 28 27 27 27 27 27 27 27 27 27 27 27 27 26 26 26
28 28 28 28 27 26 26 26 26 27 27 28 28 29 29 30 29 28 28 27 27 27 27 27 27 27 27 27 27 26 26 26 26 26 26 26 26 26 26 26 26 25 26
27 27 26 27 27 26 26 26 26 27 27 27 28 28 29 28 28 27 27 26 26 26 26 26 26 26 27 27 26 26 26 26 26 25 25 25 25 25 26 26 26 25 25
26 26 25 25 25 25 26 26 27 27 27 27 27 28 28 27 26 25 25 24 25 25 25 26 25 26 26 26 25 25 25 25 25 24 24 23 23 23 24 24 24 25 24
25 25 24 24 25 25 25 25 27 28 28 27 27 27 27 27 25 24 24 24 25 25 25 25 25 25 25 24 24 25 25 24 24 24 23 23 22 23 23 24 24 24 24
24 23 22 23 24 24 24 25 26 26 26 26 27 28 28 27 26 25 25 25 25 25 25 25 24 24 23 23 22 23 24 24 24 24 23 22 22 23 22 23 23 23 24
25 23 23 23 24 23 23 23 24 25 25 25 26 26 26 26 26 25 24 24 24 24 24 24 24 23 23 22 22 23 23 24 24 23 23 22 22 22 22 22 22 22 23
23 23 23 23 22 22 21 21 22 23 23 23 24 24 24 24 24 23 22 23 22 23 23 23 23 23 22 22 22 22 23 23 23 22 22 21 21 21 21 21 21 21 21
23 22 22 21 20 19 20 20 20 21 21 22 22 22 22 21 21 21 21 21 21 22 22 22 22 23 23 22 22 22 22 22 21 21 21 21 21 22 22 21 21 20 20
21 20 20 20 19 19 20 20 20 20 20 21 20 20 20 19 19 19 20 20 21 21 21 22 22 22 22 22 21 21 21 21 20 20 21 21 21 21 21 21 21 21 20
19 19 19 19 18 18 19 20 20 20 19 18 18 17 17 18 18 18 19 19 19 19 20 20 21 21 21 21 20 21 20 20 20 20 20 20 20 20 20 20 19 19 19
19 19 19 18 18 18 18 18 18 18 17 17 16 15 16 16 17 17 17 17 17 18 18 19 18 18 18 19 19 19 19 19 19 20 19 19 19 19 19 19 18 18 19
18 18 18 17 17 17 17 17 17 16 16 16 15 14 14 14 14 14 14 15 15 15 16 16 16 16 17 18 18 17 17 18 18 18 18 17 17 17 17 17 18 18 18
17 17 16 16 16 16 15 15 15 14 14 14 13 12 12 12 12 13 13 13 13 14 14 14 14 14 15 16 16 16 16 16 16 16 16 16 15 15 14 14 15 16 17
15 15 15 15 14 14 14 14 14 13 13 13 12 12 12 11 12 12 12 12 12 12 13 13 12 12 13 13 14 14 14 14 14 14 14 14 13 12 13 13 13 13 14
14 13 13 13 13 12 12 12 12 12 12 12 11 11 11 10 11 11 11 11 11 12 12 11 11 11 11 11 12 12 12 12 12 12 11 11 11 11 11 11 11 11 11
12 12 12 12 11 11 11 11 11 10 10 11 10 9 9 9 9 10 10 10 11 11 11 11 11 11 11 11 11 11 11 10 10 10 10 9 9 9 10 9 9 10 10
11 11 11 11 11 11 10 10 10 10 10 10 8 8 8 8 9 9 10 10 10 11 11 11 11 11 11 11 11 10 10 9 9 9 8 8 7 8 8 8 8 8 9
10 10 10 10 10 10 9 8 8 8 8 8 7 8 8 8 9 10 11 11 11 12 11 12 12 11 11 11 11 10 9 9 7 6 7 7 7 7 6 7 7 7 7
8 8 9 9 9 8 7 7 7 8 8 8 7 8 9 9 10 10 11 12 12 12 12 12 12 12 12 11 11 10 9 8 7 7 6 7 6 6 6 6 7 7 7
Wind_Direction
291 290 287 285 281 281 283 283 282 281 281 283 284 285 284 284 284 284 284 281 278 279 281 279 280 280 280 280 280 280 281 282 283 281 280 280 279 276 274 274 273 273 272
288 288 287 285 282 280 281 282 281 283 282 283 283 284 283 283 283 284 285 284 282 281 280 280 279 280 280 280 279 279 280 282 282 281 279 278 276 275 274 273 273 273 272
288 284 284 283 282 281 283 283 283 284 284 284 284 284 284 283 281 282 283 284 284 282 279 279 278 279 279 279 279 279 279 281 282 281 281 279 275 273 273 272 271 271 272
289 286 285 283 284 286 284 282 282 283 283 282 282 285 285 284 283 283 286 284 282 281 280 279 279 278 279 279 281 281 278 280 280 279 280 279 275 274 273 272 271 271 272
289 290 288 288 288 288 286 282 280 281 282 280 280 282 282 284 282 284 286 284 283 283 282 282 282 280 280 281 282 282 280 279 278 278 278 277 276 275 275 273 271 272 271
290 291 290 289 289 288 287 282 279 280 280 279 280 281 282 285 286 285 283 284 285 285 285 284 283 281 279 280 281 283 282 279 278 277 276 274 274 274 274 272 272 271 270
293 292 291 290 290 289 287 284 281 281 282 281 281 283 284 286 286 286 285 285 286 287 286 283 282 281 280 279 280 282 283 281 279 277 276 273 272 272 272 271 270 270 269
295 293 293 292 291 290 288 285 282 281 282 282 282 284 285 284 285 284 284 285 285 286 284 282 282 281 280 279 280 281 282 282 280 278 276 273 271 270 272 272 271 269 269
296 296 295 294 293 288 286 286 284 283 283 285 286 284 285 285 285 285 286 285 286 286 284 284 284 283 280 279 280 281 283 282 280 279 276 273 271 270 271 271 270 269 269
298 298 296 294 296 292 287 286 286 286 286 286 287 288 286 286 286 286 288 289 288 289 288 288 284 283 283 279 278 281 282 281 280 279 277 274 272 271 271 270 269 268 268
299 299 297 296 295 294 290 287 286 290 289 288 289 289 288 287 286 287 288 290 289 288 288 290 286 284 282 280 278 278 278 280 279 277 276 275 272 270 269 268 267 267 267
305 303 299 296 295 294 292 290 289 291 291 289 288 288 288 288 287 288 287 288 288 288 288 288 285 284 283 283 281 279 278 277 278 277 276 275 272 271 269 268 266 266 265
302 301 300 297 295 294 296 294 293 293 293 292 290 289 290 289 289 288 289 287 287 287 288 288 284 283 283 283 284 281 280 279 279 278 275 273 272 271 271 270 266 264 263
302 303 300 297 296 298 299 298 295 295 296 295 294 294 295 291 288 286 287 287 288 289 289 289 287 284 283 283 283 282 281 279 278 278 276 273 271 271 272 272 270 265 262
303 302 300 300 300 300 300 300 299 298 297 297 295 293 295 293 290 286 284 285 289 290 290 290 289 285 284 283 283 283 283 281 279 279 277 274 273 272 271 273 272 268 264
302 301 301 300 300 299 300 301 302 302 301 300 299 299 296 293 293 291 289 289 289 290 290 290 289 286 285 285 285 285 284 283 282 281 278 275 273 273 271 271 271 269 266
301 300 302 302 300 301 302 304 304 306 306 303 301 299 296 293 295 295 292 291 290 290 290 290 289 286 285 286 285 284 284 284 284 282 279 276 273 272 269 266 268 266 264
299 301 302 303 303 303 303 305 306 307 309 307 303 299 296 298 301 299 297 295 295 294 292 290 289 288 287 287 286 285 285 285 286 285 281 277 275 271 268 265 264 264 263
300 303 303 303 305 305 306 307 308 308 313 313 308 303 301 300 302 304 305 304 302 301 299 295 292 290 289 288 285 285 286 287 288 287 283 279 277 272 269 266 262 263 262
300 304 304 304 306 308 308 309 310 313 312 315 314 309 306 307 309 312 313 313 312 310 307 301 297 296 294 292 290 290 291 290 289 289 286 284 280 274 266 265 263 262 261
302 305 307 308 310 311 311 312 315 319 318 318 317 315 314 312 314 315 315 317 318 319 317 313 309 307 305 301 297 296 295 293 292 291 287 285 281 276 268 266 267 266 263
302 305 310 311 310 312 312 315 318 321 320 318 318 319 320 319 321 322 322 324 325 325 324 322 320 318 316 312 309 304 301 297 295 293 289 286 280 273 271 268 265 264 264
301 304 310 314 313 317 315 318 322 324 326 324 325 331 334 336 336 334 332 332 334 333 331 330 330 329 326 321 316 313 308 302 297 293 291 287 282 276 270 268 266 264 261
301 306 312 317 320 321 322 324 325 325 329 332 337 344 348 352 351 350 348 345 342 338 337 338 336 333 330 327 323 321 319 312 302 299 295 289 281 278 271 266 266 265 261
300 305 314 320 325 326 328 333 338 340 340 344 349 350 351 350 348 347 347 347 345 343 342 342 340 337 333 330 327 327 326 322 313 306 302 297 288 283 275 268 265 263 267
305 313 320 325 327 331 331 335 340 345 345 348 350 349 350 348 345 344 344 346 346 347 345 343 343 340 337 335 334 332 329 323 317 315 309 304 298 284 276 272 268 267 274
Height
5848 5846 5844 5843 5843 5843 5842 5840 5839 5838 5838 5837 5835 5834 5832 5832 5831 5830 5829 5828 5828 5827 5827 5826 5826 5826 5825 5825 5824 5824 5823 5822 5822 5821 5821 5821 5820 5821 5821 5821 5821 5822 5822
5844 5841 5838 5837 5834 5836 5835 5834 5833 5833 5832 5830 5829 5828 5827 5825 5825 5825 5824 5823 5822 5821 5821 5820 5820 5820 5819 5818 5817 5817 5817 5816 5815 5814 5814 5814 5815 5814 5814 5814 5815 5815 5815
5838 5836 5834 5832 5830 5829 5828 5827 5827 5826 5825 5823 5822 5822 5821 5819 5819 5818 5818 5817 5817 5816 5815 5814 5813 5813 5812 5811 5810 5810 5810 5809 5808 5807 5807 5807 5807 5807 5807 5807 5808 5808 5808
5832 5829 5828 5827 5825 5822 5822 5821 5820 5819 5818 5817 5816 5815 5814 5813 5812 5812 5811 5811 5810 5809 5808 5807 5806 5805 5805 5804 5803 5803 5802 5802 5802 5801 5800 5800 5799 5800 5800 5801 5801 5801 5801
5827 5824 5822 5820 5819 5817 5817 5815 5813 5812 5811 5810 5809 5808 5808 5807 5806 5805 5804 5804 5804 5803 5802 5800 5799 5798 5798 5797 5796 5795 5795 5794 5794 5793 5793 5792 5792 5792 5793 5794 5794 5794 5795
5821 5818 5816 5814 5813 5811 5810 5808 5807 5806 5805 5804 5803 5802 5801 5800 5799 5798 5798 5797 5797 5796 5795 5794 5792 5791 5790 5790 5789 5788 5787 5786 5786 5786 5785 5785 5786 5785 5786 5786 5787 5787 5788
5816 5813 5810 5808 5807 5805 5803 5801 5801 5800 5799 5798 5797 5795 5794 5793 5792 5792 5791 5790 5789 5788 5787 5786 5785 5784 5783 5783 5782 5781 5780 5779 5778 5778 5778 5778 5778 5778 5778 5779 5779 5780 5781
5810 5808 5805 5802 5800 5799 5796 5795 5794 5793 5793 5791 5790 5789 5788 5786 5786 5785 5784 5783 5782 5781 5779 5778 5778 5777 5776 5775 5774 5774 5773 5772 5771 5771 5770 5770 5771 5771 5771 5771 5772 5773 5774
5805 5802 5799 5796 5794 5792 5790 5789 5788 5788 5787 5785 5784 5783 5781 5780 5778 5777 5776 5775 5774 5773 5772 5771 5770 5769 5768 5768 5767 5766 5766 5765 5764 5763 5763 5763 5763 5763 5763 5764 5765 5766 5766
5799 5796 5793 5790 5789 5786 5785 5783 5782 5782 5780 5779 5777 5776 5774 5773 5772 5770 5769 5768 5767 5766 5765 5764 5763 5762 5761 5760 5760 5759 5758 5758 5757 5757 5756 5756 5756 5756 5756 5757 5757 5758 5759
5792 5790 5788 5786 5783 5781 5779 5777 5776 5775 5774 5772 5771 5770 5768 5767 5765 5764 5763 5762 5761 5760 5759 5757 5756 5755 5755 5754 5753 5753 5752 5751 5751 5750 5750 5749 5749 5749 5749 5750 5750 5751 5752
5788 5786 5783 5781 5778 5775 5773 5772 5770 5769 5767 5766 5765 5763 5761 5760 5759 5758 5756 5756 5755 5753 5752 5751 5750 5749 5748 5747 5746 5746 5745 5745 5744 5743 5743 5742 5742 5742 5742 5743 5743 5744 5744
5784 5781 5778 5776 5773 5771 5769 5767 5765 5764 5762 5760 5758 5757 5755 5754 5753 5751 5750 5749 5748 5747 5746 5745 5744 5743 5742 5741 5740 5739 5739 5738 5737 5737 5736 5736 5736 5736 5736 5736 5737 5737 5738
5779 5776 5774 5771 5769 5766 5764 5762 5760 5758 5757 5755 5752 5751 5749 5747 5746 5745 5744 5743 5742 5741 5740 5739 5738 5737 5736 5735 5734 5733 5732 5731 5731 5730 5729 5729 5729 5730 5730 5730 5730 5731 5732
5775 5773 5770 5767 5764 5762 5760 5758 5756 5754 5752 5749 5747 5745 5743 5742 5740 5739 5739 5738 5737 5736 5734 5733 5732 5731 5730 5729 5728 5727 5726 5725 5724 5724 5723 5723 5723 5724 5724 5724 5724 5725 5726
5770 5768 5765 5762 5760 5758 5756 5754 5752 5750 5747 5744 5742 5741 5739 5737 5736 5735 5733 5732 5731 5730 5728 5727 5726 5725 5724 5723 5722 5721 5720 5719 5718 5717 5717 5717 5717 5717 5718 5718 5719 5719 5720
5766 5763 5761 5759 5756 5754 5752 5750 5748 5745 5743 5740 5739 5737 5735 5733 5731 5730 5729 5727 5726 5724 5723 5722 5720 5719 5718 5717 5716 5715 5714 5713 5712 5711 5711 5711 5711 5711 5712 5712 5713 5713 5714
5762 5760 5757 5755 5753 5751 5749 5746 5744 5742 5739 5737 5735 5733 5731 5730 5728 5726 5724 5723 5721 5719 5718 5716 5715 5714 5712 5711 5710 5709 5708 5707 5707 5706 5705 5705 5705 5705 5706 5706 5707 5708 5709
5757 5755 5753 5751 5749 5747 5745 5743 5741 5738 5736 5734 5731 5730 5728 5726 5725 5723 5721 5719 5717 5715 5713 5712 5710 5709 5708 5707 5706 5705 5703 5702 5702 5701 5700 5700 5700 5700 5700 5701 5702 5703 5703
5753 5751 5749 5747 5745 5744 5742 5740 5738 5735 5733 5731 5729 5727 5725 5723 5722 5720 5718 5716 5714 5712 5710 5708 5706 5705 5704 5703 5701 5700 5699 5698 5697 5696 5696 5695 5695 5696 5696 5696 5697 5698 5698
5749 5748 5746 5744 5742 5740 5739 5737 5735 5733 5730 5728 5726 5724 5723 5721 5719 5718 5716 5714 5712 5710 5708 5705 5703 5702 5701 5699 5698 5696 5695 5694 5694 5693 5692 5692 5692 5692 5692 5692 5693 5693 5694
5746 5745 5743 5741 5739 5738 5736 5735 5733 5731 5729 5727 5725 5723 5721 5719 5717 5716 5714 5712 5710 5708 5706 5704 5702 5700 5698 5696 5695 5693 5692 5691 5691 5690 5689 5689 5689 5689 5689 5689 5689 5690 5690
5744 5742 5741 5739 5737 5736 5734 5733 5731 5729 5727 5725 5723 5722 5720 5718 5716 5714 5713 5711 5709 5707 5705 5703 5701 5699 5697 5695 5693 5691 5690 5689 5688 5687 5686 5686 5686 5686 5686 5686 5687 5687 5687
5741 5740 5739 5737 5736 5734 5733 5731 5729 5727 5726 5724 5722 5721 5719 5718 5716 5714 5712 5710 5709 5706 5704 5702 5700 5698 5696 5694 5691 5690 5688 5687 5686 5685 5684 5684 5684 5684 5684 5684 5684 5684 5684
5739 5738 5737 5735 5734 5733 5731 5730 5728 5726 5725 5723 5722 5721 5719 5717 5716 5714 5712 5710 5708 5706 5703 5701 5699 5697 5694 5692 5690 5688 5687 5686 5685 5684 5683 5683 5682 5682 5682 5682 5682 5682 5682
5737 5736 5735 5734 5733 5731 5730 5729 5727 5726 5725 5723 5722 5720 5719 5717 5715 5713 5711 5709 5707 5705 5703 5700 5698 5696 5694 5691 5689 5688 5686 5685 5684 5683 5682 5682 5680 5680 5680 5680 5680 5680 5681